• Processing (Info)

  • MPEC 2013-T10 : 2013 TF

    The following Minor Planet Electronic Circular may be linked-to from your own Web pages, but must not otherwise be redistributed electronically.

    A form allowing access to any MPEC is at the bottom of this page.


    Read MPEC 2013-T09 Read MPEC 2013-T11


    M.P.E.C. 2013-T10                                Issued 2013 Oct. 2, 20:07 UT
    
         The Minor Planet Electronic Circulars contain information on unusual
             minor planets and routine data on comets.  They are published
       on behalf of Commission 20 of the International Astronomical Union by the
              Minor Planet Center, Smithsonian Astrophysical Observatory,
                              Cambridge, MA 02138, U.S.A.
    
                 Prepared using the Tamkin Foundation Computer Network
    
                                  MPC@CFA.HARVARD.EDU
                URL https://www.minorplanetcenter.net/    ISSN 1523-6714
    
                                        2013 TF
    
    Observations:
         K13T00F  C2013 10 01.17464 23 11 48.18 +11 52 33.6          19.7 rNET010I41
         K13T00F  C2013 10 01.22682 23 12 02.61 +11 46 31.1          19.9 rNET010I41
         K13T00F  C2013 10 01.26030 23 12 11.82 +11 42 38.4          19.6 rNET010I41
         K13T00F* C2013 10 01.33273 23 12 31.33 +11 34 18.0          19.2 VqET010703
         K13T00F  C2013 10 01.33681 23 12 32.46 +11 33 50.8          19.7 VqET010703
         K13T00F  C2013 10 01.34089 23 12 33.60 +11 33 22.1          19.7 VqET010703
         K13T00F  C2013 10 01.34500 23 12 34.69 +11 32 52.5          19.8 VqET010703
         K13T00F KC2013 10 02.04108623 15 50.30 +10 15 45.7          19.8 VuET010H21
         K13T00F KC2013 10 02.04428023 15 51.13 +10 15 25.4          20.0 VuET010H21
         K13T00F KC2013 10 02.04711823 15 51.87 +10 15 07.5          19.8 VuET010H21
         K13T00F KC2013 10 02.05011023 15 52.63 +10 14 48.2          20.1 VuET010H21
         K13T00F KC2013 10 02.19630 23 16 29.64 +09 59 21.6          20.0 RqET010H36
         K13T00F KC2013 10 02.20155 23 16 30.98 +09 58 48.7          20.1 RqET010H36
         K13T00F KC2013 10 02.20642 23 16 32.20 +09 58 18.3          20.4 RqET010H36
         K13T00F KC2013 10 02.21125 23 16 33.40 +09 57 46.9          20.1 RqET010H36
         K13T00F  C2013 10 02.30844 23 16 57.91 +09 47 41.2          20.0 RcET010854
         K13T00F  C2013 10 02.31735 23 17 00.09 +09 46 46.1          19.8 RcET010854
         K13T00F  C2013 10 02.32627 23 17 02.21 +09 45 50.7          19.8 RcET010854
    
    Observer details:
    703 Catalina Sky Survey.  Observer R. E. Hill.  Measurers A. Boattini,
        E. J. Christensen, A. R. Gibbs, A. D. Grauer, R. E. Hill, J. A. Johnson,
        R. A. Kowalski, S. M. Larson, F. C. Shelly.  0.68-m Schmidt + CCD.
    854 Sabino Canyon Observatory, Tucson.  Observer J. E. McGaha.  0.36-m f/10.0
        Schmidt-Cassegrain + CCD.
    H21 Astronomical Research Observatory, Westfield.  Observer R. Holmes.
        Measurers T. Linder, S. Foglia, L. Buzzi, T. Vorobjov.  0.61-m f/4.5
        astrograph + CCD.
    H36 Sandlot Observatory, Scranton.  Observer G. Hug.  0.56-m reflector + CCD.
    I41 Palomar Mountain--PTF.  Observer P. Transient Factory.  Measurer
        A. Waszczak.  1.2-m f/2.44 Schmidt + CCD.
    
    Orbital elements:
    2013 TF                                                  Earth MOID = 0.1086 AU
    Epoch 2013 Nov. 4.0 TT = JDT 2456600.5                  MPC
    M  19.27414              (2000.0)            P               Q
    n   0.20948892     Peri.   89.03113     +0.20403305     +0.97618498
    a   2.8077731      Node   193.44455     -0.97588360     +0.19684521
    e   0.7334544      Incl.   18.48360     -0.07759969     +0.09118575
    P   4.70           H   22.2           G   0.15           U   8
    Residuals in seconds of arc
    131001 I41  0.2+  0.4-    131001 703  0.3-  0.7-    131002 H36  0.2-  0.3+
    131001 I41  0.1-  0.1+    131002 H21  0.2-  0.4-    131002 H36  0.0   0.6+
    131001 I41  0.2+  0.3-    131002 H21  0.0   0.3-    131002 H36  0.1+  0.4-
    131001 703  0.2-  0.1+    131002 H21  0.1+  0.1-    131002 854  0.6+  0.4-
    131001 703  0.0   1.0+    131002 H21  0.0   0.3-    131002 854  0.6+  0.2+
    131001 703  0.3+  0.5+    131002 H36  0.7-  0.1+    131002 854  0.4-  0.5+
    
    Ephemeris:
    2013 TF                  a,e,i = 2.81, 0.73, 18                  q = 0.7484
    Date    TT    R. A. (2000) Decl.     Delta      r     Elong.  Phase     V
    2013 09 02    13 50 51.7 +43 17 03   0.2349  0.8907    53.8   113.9    23.2
    ...
    2013 09 17    19 19 10.6 +57 20 40   0.1214  1.0357   101.3    72.1    20.2
    ...
    2013 09 25    22 26 12.2 +28 23 12   0.1428  1.1207   143.3    32.3    19.6
    ...
    2013 10 01    23 10 55.0 +12 13 29   0.1962  1.1862   158.7    17.8    20.0
    2013 10 02    23 15 37.4 +10 20 38   0.2068  1.1972   159.8    16.8    20.1
    2013 10 03    23 19 51.4 +08 38 32   0.2178  1.2082   160.5    16.0    20.2
    ...
    2013 10 09    23 38 29.9 +01 16 15   0.2897  1.2745   159.6    15.8    20.9
    ...
    2013 10 17    23 53 47.8 -03 59 39   0.3972  1.3631   153.2    19.2    21.8
    ...
    2013 11 01    00 12 16.3 -07 50 11   0.6256  1.5275   140.4    24.5    23.2
    
    A. U. Tomatic                (C) Copyright 2013 MPC           M.P.E.C. 2013-T10
    

    Read MPEC 2013-T09 Read MPEC 2013-T11


    MPEC number:

    Enter an MPEC number in one of the following forms:

    • 1997-B01 (the full form)
    • J97B01 (the packed version of the full form)
    • B01 (the abbreviated form)